^^
Datos históricos de la estación: Murcia-Puente Tocinos
Diario Informe para Junio 6, 2019 Unidades:  Métrico    Inglés   Ambas
Diario Semanal Mensual Anual Configurable
  Máximo: Mínimo: Media:
Temperatura: 26.7 °C 17.2 °C 22.7 °C
Punto de rocio: 16.2 °C 2.2 °C 8.4 °C
Humedad: 81% 25% 42%
Velocidad viento: 21.7km/h 0.0km/h 9.8km/h
Racha viento: 38.9km/h - -
Viento- - SE
Presión: 1012.2 hPa 1007.8 hPa -
Precipitación: 0.0 mm    
Historical Graphs
 
 
Tabla de datos para Junio 6, 2019
Hora Temperatura Punto de rocio Presión Viento Velocidad viento Racha viento Humedad Intensidad lluvia(por hora) Nubes
00:04 23.7 °C 2.5 °C 1011.1 hPa West 2.3 km/h 5.6 km/h 25% 0.0 mm CLR
00:09 23.7 °C 2.5 °C 1011.1 hPa West 3.2 km/h 7.4 km/h 25% 0.0 mm CLR
00:14 23.6 °C 2.4 °C 1011.1 hPa West 3.2 km/h 3.7 km/h 25% 0.0 mm CLR
00:19 23.6 °C 2.4 °C 1011.2 hPa West 3.2 km/h 3.7 km/h 25% 0.0 mm CLR
00:24 23.5 °C 2.3 °C 1011.2 hPa West 3.2 km/h 3.7 km/h 25% 0.0 mm CLR
00:29 23.4 °C 3.8 °C 1011.2 hPa Calm   6.4 km/h 28% 0.0 mm CLR
00:34 23.2 °C 3.7 °C 1011.2 hPa Calm   5.6 km/h 28% 0.0 mm CLR
00:39 23.1 °C 3.6 °C 1011.2 hPa South 3.9 km/h 5.6 km/h 28% 0.0 mm CLR
00:44 23.1 °C 3.6 °C 1011.2 hPa South 3.9 km/h 3.7 km/h 28% 0.0 mm CLR
00:49 23.0 °C 3.5 °C 1011.3 hPa South 2.3 km/h 3.7 km/h 28% 0.0 mm CLR
00:54 23.0 °C 3.5 °C 1011.3 hPa South 2.3 km/h   28% 0.0 mm CLR
00:59 22.9 °C 3.4 °C 1011.3 hPa Calm   2.3 km/h 28% 0.0 mm CLR
01:04 22.8 °C 2.8 °C 1011.3 hPa Calm   5.6 km/h 27% 0.0 mm CLR
01:09 22.7 °C 2.7 °C 1011.3 hPa West 3.2 km/h 7.4 km/h 27% 0.0 mm CLR
01:14 22.6 °C 3.2 °C 1011.3 hPa West 3.2 km/h 7.4 km/h 28% 0.0 mm CLR
01:19 22.4 °C 3.0 °C 1011.3 hPa West 3.9 km/h 5.6 km/h 28% 0.0 mm CLR
01:24 22.3 °C 2.9 °C 1011.3 hPa West 3.9 km/h   28% 0.0 mm CLR
01:29 22.2 °C 3.3 °C 1011.3 hPa West 2.9 km/h 5.6 km/h 29% 0.0 mm CLR
01:34 22.2 °C 3.8 °C 1011.3 hPa ESE 2.9 km/h 5.6 km/h 30% 0.0 mm CLR
01:39 22.2 °C 4.3 °C 1011.3 hPa ESE 3.2 km/h 5.8 km/h 31% 0.0 mm CLR
01:44 21.9 °C 4.4 °C 1011.3 hPa SE 3.2 km/h 8.4 km/h 32% 0.0 mm CLR
01:49 21.6 °C 4.2 °C 1011.5 hPa SE 5.0 km/h 7.4 km/h 32% 0.0 mm CLR
01:54 21.3 °C 3.9 °C 1011.5 hPa SSW 5.0 km/h 7.4 km/h 32% 0.0 mm CLR
01:59 21.2 °C 3.4 °C 1011.5 hPa SSW 5.8 km/h 10.0 km/h 31% 0.0 mm CLR
02:04 21.3 °C 3.5 °C 1011.4 hPa SW 5.8 km/h 7.4 km/h 31% 0.0 mm CLR
02:09 21.4 °C 3.6 °C 1011.4 hPa SSW 5.8 km/h 8.4 km/h 31% 0.0 mm CLR
02:14 21.5 °C 3.7 °C 1011.4 hPa SW 5.8 km/h 7.4 km/h 31% 0.0 mm CLR
02:19 21.5 °C 3.7 °C 1011.2 hPa SSW 5.0 km/h 5.8 km/h 31% 0.0 mm CLR
02:24 21.5 °C 3.2 °C 1011.2 hPa SW 5.0 km/h 7.4 km/h 30% 0.0 mm CLR
02:29 21.4 °C 3.1 °C 1011.2 hPa SSW 5.0 km/h 7.4 km/h 30% 0.0 mm CLR
02:34 21.4 °C 3.1 °C 1011.2 hPa SSW 5.0 km/h 9.3 km/h 30% 0.0 mm CLR
02:39 21.3 °C 3.0 °C 1011.2 hPa SSW 5.8 km/h 7.4 km/h 30% 0.0 mm CLR
02:44 21.3 °C 3.0 °C 1011.2 hPa SE 5.8 km/h 7.4 km/h 30% 0.0 mm CLR
02:49 21.1 °C 3.3 °C 1011.2 hPa SSW 5.0 km/h 9.3 km/h 31% 0.0 mm CLR
02:54 20.9 °C 3.1 °C 1011.2 hPa SSW 5.0 km/h 9.3 km/h 31% 0.0 mm CLR
02:59 20.8 °C 3.5 °C 1011.2 hPa SW 5.8 km/h 7.6 km/h 32% 0.0 mm CLR
03:04 20.6 °C 3.3 °C 1011.4 hPa SSW 5.8 km/h 9.3 km/h 32% 0.0 mm CLR
03:09 20.5 °C 3.2 °C 1011.4 hPa SSW 5.8 km/h 7.6 km/h 32% 0.0 mm CLR
03:14 20.4 °C 3.6 °C 1011.4 hPa SSW 5.8 km/h 7.4 km/h 33% 0.0 mm CLR
03:19 20.2 °C 3.4 °C 1011.4 hPa South 6.4 km/h 7.4 km/h 33% 0.0 mm CLR
03:24 20.1 °C 3.3 °C 1011.4 hPa South 6.4 km/h 7.4 km/h 33% 0.0 mm CLR
03:29 20.0 °C 3.2 °C 1011.4 hPa SSW 5.8 km/h 7.4 km/h 33% 0.0 mm CLR
03:34 19.9 °C 3.6 °C 1011.4 hPa SSW 5.8 km/h 7.4 km/h 34% 0.0 mm CLR
03:39 19.9 °C 3.1 °C 1011.4 hPa SSW 5.8 km/h 9.3 km/h 33% 0.0 mm CLR
03:44 19.9 °C 3.1 °C 1011.4 hPa SW 5.8 km/h 9.3 km/h 33% 0.0 mm CLR
03:49 20.0 °C 3.2 °C 1011.2 hPa WSW 6.4 km/h 11.1 km/h 33% 0.0 mm CLR
03:54 20.0 °C 3.2 °C 1011.2 hPa SW 6.4 km/h 8.7 km/h 33% 0.0 mm CLR
03:59 20.1 °C 3.3 °C 1011.2 hPa SW 6.4 km/h 11.1 km/h 33% 0.0 mm CLR
04:04 20.0 °C 3.2 °C 1011.2 hPa WSW 6.4 km/h 11.1 km/h 33% 0.0 mm CLR
04:09 20.0 °C 2.8 °C 1011.2 hPa WSW 7.6 km/h 13.0 km/h 32% 0.0 mm CLR
04:14 20.2 °C 2.9 °C 1011.2 hPa WSW 7.6 km/h 11.1 km/h 32% 0.0 mm CLR
04:19 20.2 °C 2.9 °C 1011.1 hPa SW 9.5 km/h 11.1 km/h 32% 0.0 mm CLR
04:24 20.2 °C 2.9 °C 1011.1 hPa WSW 9.5 km/h 13.0 km/h 32% 0.0 mm CLR
04:29 20.1 °C 2.9 °C 1011.1 hPa WSW 8.7 km/h 13.0 km/h 32% 0.0 mm CLR
04:34 19.9 °C 3.1 °C 1011.2 hPa SW 8.7 km/h 13.0 km/h 33% 0.0 mm CLR
04:39 19.9 °C 3.1 °C 1011.2 hPa WSW 8.4 km/h 9.5 km/h 33% 0.0 mm CLR
04:44 19.8 °C 3.1 °C 1011.2 hPa West 8.4 km/h 8.7 km/h 33% 0.0 mm CLR
04:49 19.8 °C 3.1 °C 1011.2 hPa WSW 5.8 km/h 7.4 km/h 33% 0.0 mm CLR
04:54 19.7 °C 2.9 °C 1011.2 hPa WSW 5.8 km/h 7.4 km/h 33% 0.0 mm CLR
04:59 19.6 °C 2.9 °C 1011.2 hPa WSW 5.8 km/h 7.4 km/h 33% 0.0 mm CLR
05:04 19.4 °C 2.7 °C 1011.3 hPa WSW 5.8 km/h 7.4 km/h 33% 0.0 mm CLR
05:09 19.4 °C 2.7 °C 1011.3 hPa SW 6.4 km/h 9.5 km/h 33% 0.0 mm CLR
05:14 19.3 °C 2.6 °C 1011.3 hPa SW 6.4 km/h 9.5 km/h 33% 0.0 mm CLR
05:19 19.3 °C 3.1 °C 1011.3 hPa WSW 7.6 km/h 10.3 km/h 34% 0.0 mm CLR
05:24 19.2 °C 2.9 °C 1011.3 hPa WSW 7.6 km/h 11.1 km/h 34% 0.0 mm CLR
05:29 19.2 °C 2.9 °C 1011.3 hPa SW 6.9 km/h 10.0 km/h 34% 0.0 mm CLR
05:34 19.1 °C 2.8 °C 1011.2 hPa SW 6.9 km/h 9.3 km/h 34% 0.0 mm CLR
05:39 19.0 °C 2.8 °C 1011.2 hPa WSW 6.9 km/h 9.3 km/h 34% 0.0 mm CLR
05:44 19.0 °C 2.8 °C 1011.2 hPa West 6.9 km/h 8.4 km/h 34% 0.0 mm CLR
05:49 18.9 °C 2.7 °C 1011.4 hPa West 6.9 km/h 9.3 km/h 34% 0.0 mm CLR
05:54 18.8 °C 2.6 °C 1011.4 hPa WSW 6.9 km/h 7.4 km/h 34% 0.0 mm CLR
05:59 18.8 °C 2.2 °C 1011.4 hPa WSW 5.0 km/h 11.1 km/h 33% 0.0 mm CLR
06:04 18.7 °C 2.5 °C 1011.4 hPa WSW 5.0 km/h 6.4 km/h 34% 0.0 mm CLR
06:09 18.7 °C 2.5 °C 1011.4 hPa SW 5.0 km/h 7.4 km/h 34% 0.0 mm CLR
06:14 18.7 °C 2.5 °C 1011.4 hPa West 5.0 km/h 5.0 km/h 34% 0.0 mm CLR
06:19 18.6 °C 2.4 °C 1011.3 hPa West 5.0 km/h 9.3 km/h 34% 0.0 mm CLR
06:24 18.5 °C 2.7 °C 1011.3 hPa WSW 5.0 km/h 6.9 km/h 35% 0.0 mm CLR
06:29 18.4 °C 2.7 °C 1011.3 hPa WSW 5.0 km/h 7.4 km/h 35% 0.0 mm CLR
06:34 18.3 °C 2.6 °C 1011.5 hPa WSW 5.0 km/h 5.6 km/h 35% 0.0 mm CLR
06:39 18.2 °C 3.3 °C 1011.5 hPa SE 3.9 km/h 5.6 km/h 37% 0.0 mm CLR
06:44 18.1 °C 3.9 °C 1011.5 hPa South 3.9 km/h 3.7 km/h 39% 0.0 mm CLR
06:49 17.9 °C 3.4 °C 1011.4 hPa SW 3.9 km/h 7.4 km/h 38% 0.0 mm CLR
06:54 17.9 °C 3.0 °C 1011.4 hPa WSW 3.9 km/h 9.5 km/h 37% 0.0 mm CLR
06:59 18.0 °C 2.7 °C 1011.4 hPa WSW 6.9 km/h 8.4 km/h 36% 0.0 mm CLR
07:04 18.1 °C 3.2 °C 1011.6 hPa SW 6.9 km/h 7.4 km/h 37% 0.0 mm CLR
07:09 18.1 °C 3.9 °C 1011.6 hPa South 4.7 km/h 7.4 km/h 39% 0.0 mm CLR
07:14 18.0 °C 4.6 °C 1011.6 hPa SSE 4.7 km/h 7.4 km/h 41% 0.0 mm CLR
07:19 17.6 °C 4.2 °C 1011.7 hPa SSE 5.8 km/h 7.4 km/h 41% 0.0 mm CLR
07:24 17.4 °C 4.3 °C 1011.7 hPa SSE 5.8 km/h 7.4 km/h 42% 0.0 mm CLR
07:29 17.2 °C 4.5 °C 1011.7 hPa South 4.7 km/h 7.4 km/h 43% 0.0 mm CLR
07:34 17.2 °C 4.5 °C 1011.7 hPa South 4.7 km/h 5.6 km/h 43% 0.0 mm CLR
07:39 17.4 °C 4.3 °C 1011.7 hPa South 4.7 km/h 5.6 km/h 42% 0.0 mm CLR
07:44 17.6 °C 4.2 °C 1011.7 hPa South 4.7 km/h 4.7 km/h 41% 0.0 mm CLR
07:49 17.8 °C 3.7 °C 1011.9 hPa WSW 3.9 km/h 7.4 km/h 39% 0.0 mm CLR
07:54 18.2 °C 3.6 °C 1011.9 hPa West 3.9 km/h 9.3 km/h 38% 0.0 mm CLR
07:59 18.4 °C 3.4 °C 1011.9 hPa SW 5.8 km/h 13.0 km/h 37% 0.0 mm CLR
08:04 18.6 °C 3.6 °C 1012.0 hPa WSW 5.8 km/h 7.4 km/h 37% 0.0 mm CLR
08:09 18.7 °C 3.7 °C 1012.0 hPa WSW 5.8 km/h 8.4 km/h 37% 0.0 mm CLR
08:14 18.9 °C 3.9 °C 1012.0 hPa WSW 5.8 km/h 7.4 km/h 37% 0.0 mm CLR
08:19 19.0 °C 3.6 °C 1012.0 hPa WSW 6.4 km/h 7.4 km/h 36% 0.0 mm CLR
08:24 19.2 °C 3.3 °C 1012.0 hPa WSW 6.4 km/h 9.3 km/h 35% 0.0 mm CLR
08:29 19.3 °C 3.1 °C 1012.0 hPa SW 6.4 km/h 11.1 km/h 34% 0.0 mm CLR
08:34 19.5 °C 3.2 °C 1012.0 hPa WSW 6.4 km/h 11.1 km/h 34% 0.0 mm CLR
08:39 19.7 °C 2.9 °C 1012.0 hPa SW 6.9 km/h 14.0 km/h 33% 0.0 mm CLR
08:44 19.9 °C 2.7 °C 1012.0 hPa SW 6.9 km/h 11.1 km/h 32% 0.0 mm CLR
08:49 20.2 °C 2.9 °C 1012.1 hPa SW 8.4 km/h 13.0 km/h 32% 0.0 mm CLR
08:54 20.3 °C 2.6 °C 1012.1 hPa WSW 8.4 km/h 12.2 km/h 31% 0.0 mm CLR
08:59 20.4 °C 3.2 °C 1012.1 hPa SSW 9.5 km/h 11.1 km/h 32% 0.0 mm CLR
09:04 20.6 °C 2.9 °C 1012.1 hPa WSW 9.5 km/h 9.3 km/h 31% 0.0 mm CLR
09:09 20.7 °C 2.9 °C 1012.1 hPa SW 8.4 km/h 9.3 km/h 31% 0.0 mm CLR
09:14 20.9 °C 3.1 °C 1012.1 hPa SSW 8.4 km/h 13.0 km/h 31% 0.0 mm CLR
09:19 20.9 °C 3.1 °C 1012.1 hPa SSW 7.6 km/h 13.0 km/h 31% 0.0 mm CLR
09:24 20.9 °C 3.1 °C 1012.1 hPa SW 7.6 km/h 13.0 km/h 31% 0.0 mm CLR
09:29 21.2 °C 3.4 °C 1012.1 hPa SSW 8.4 km/h 9.3 km/h 31% 0.0 mm CLR
09:34 21.2 °C 2.9 °C 1012.1 hPa WSW 8.4 km/h 16.7 km/h 30% 0.0 mm CLR
09:39 21.2 °C 3.4 °C 1012.1 hPa SW 8.7 km/h 11.1 km/h 31% 0.0 mm CLR
09:44 21.2 °C 2.9 °C 1012.1 hPa WSW 8.7 km/h 14.8 km/h 30% 0.0 mm CLR
09:49 21.4 °C 3.1 °C 1012.2 hPa West 8.4 km/h 9.3 km/h 30% 0.0 mm CLR
09:54 21.6 °C 3.3 °C 1012.2 hPa West 8.4 km/h 3.7 km/h 30% 0.0 mm CLR
09:59 21.9 °C 3.1 °C 1012.2 hPa SW 3.2 km/h 8.7 km/h 29% 0.0 mm CLR
10:04 22.2 °C 3.3 °C 1012.2 hPa NW 3.2 km/h 3.7 km/h 29% 0.0 mm CLR
10:09 22.5 °C 3.1 °C 1012.2 hPa WNW 4.7 km/h 9.3 km/h 28% 0.0 mm CLR
10:14 22.6 °C 3.2 °C 1012.2 hPa West 4.7 km/h 7.4 km/h 28% 0.0 mm CLR
10:19 22.7 °C 3.2 °C 1012.1 hPa NW 5.8 km/h 3.7 km/h 28% 0.0 mm CLR
10:24 22.9 °C 3.4 °C 1012.1 hPa WNW 5.8 km/h 7.4 km/h 28% 0.0 mm CLR
10:29 22.9 °C 3.4 °C 1012.1 hPa NW 4.7 km/h 9.3 km/h 28% 0.0 mm CLR
10:34 23.2 °C 3.7 °C 1012.0 hPa WNW 4.7 km/h 6.4 km/h 28% 0.0 mm CLR
10:39 23.2 °C 3.7 °C 1012.0 hPa NNE 4.7 km/h 5.6 km/h 28% 0.0 mm CLR
10:44 23.6 °C 3.5 °C 1012.0 hPa NW 4.7 km/h 7.4 km/h 27% 0.0 mm CLR
10:49 23.7 °C 4.1 °C 1011.8 hPa East 4.7 km/h 7.6 km/h 28% 0.0 mm CLR
10:54 23.9 °C 4.3 °C 1011.8 hPa NNE 4.7 km/h 5.8 km/h 28% 0.0 mm CLR
10:59 24.2 °C 4.0 °C 1011.8 hPa WNW 3.9 km/h 7.4 km/h 27% 0.0 mm CLR
11:04 24.3 °C 4.6 °C 1011.7 hPa NE 3.9 km/h 7.4 km/h 28% 0.0 mm CLR
11:09 24.4 °C 4.7 °C 1011.7 hPa NW 3.9 km/h 7.4 km/h 28% 0.0 mm CLR
11:14 24.6 °C 4.3 °C 1011.7 hPa ENE 3.9 km/h 7.4 km/h 27% 0.0 mm CLR
11:19 24.7 °C 4.4 °C 1011.6 hPa NNE 5.0 km/h 11.1 km/h 27% 0.0 mm CLR
11:24 24.7 °C 4.4 °C 1011.6 hPa NNE 5.0 km/h 7.4 km/h 27% 0.0 mm CLR
11:29 24.5 °C 4.8 °C 1011.6 hPa NNE 6.4 km/h 18.5 km/h 28% 0.0 mm CLR
11:34 24.6 °C 4.9 °C 1011.5 hPa ENE 6.4 km/h 14.8 km/h 28% 0.0 mm CLR
11:39 24.7 °C 5.9 °C 1011.5 hPa ENE 8.4 km/h 16.7 km/h 30% 0.0 mm CLR
11:44 24.7 °C 5.9 °C 1011.5 hPa NNE 8.4 km/h 10.0 km/h 30% 0.0 mm CLR
11:49 24.8 °C 6.5 °C 1011.3 hPa NE 8.7 km/h 16.1 km/h 31% 0.0 mm CLR
11:54 24.9 °C 7.1 °C 1011.3 hPa North 8.7 km/h 9.3 km/h 32% 0.0 mm CLR
11:59 25.1 °C 7.7 °C 1011.3 hPa NNE 10.0 km/h 18.5 km/h 33% 0.0 mm CLR
12:04 25.0 °C 8.1 °C 1011.3 hPa North 10.0 km/h 16.7 km/h 34% 0.0 mm CLR
12:09 25.1 °C 9.0 °C 1011.3 hPa NE 10.0 km/h 14.8 km/h 36% 0.0 mm CLR
12:14 25.2 °C 9.4 °C 1011.3 hPa North 10.0 km/h 22.0 km/h 37% 0.0 mm CLR
12:19 25.3 °C 10.3 °C 1011.0 hPa ESE 9.5 km/h 18.5 km/h 39% 0.0 mm CLR
12:24 25.3 °C 10.7 °C 1011.0 hPa East 9.5 km/h 20.4 km/h 40% 0.0 mm CLR
12:29 25.2 °C 12.1 °C 1011.0 hPa NE 11.9 km/h 10.0 km/h 44% 0.0 mm CLR
12:34 25.3 °C 12.8 °C 1010.9 hPa SSE 11.9 km/h 11.1 km/h 46% 0.0 mm CLR
12:39 25.6 °C 13.1 °C 1010.9 hPa ENE 8.4 km/h 14.8 km/h 46% 0.0 mm CLR
12:44 25.6 °C 13.4 °C 1010.9 hPa NE 8.4 km/h 14.8 km/h 47% 0.0 mm CLR
12:49 25.8 °C 12.9 °C 1010.9 hPa NNE 10.0 km/h 18.5 km/h 45% 0.0 mm CLR
12:54 25.7 °C 12.6 °C 1010.9 hPa NNE 10.0 km/h 22.2 km/h 44% 0.0 mm CLR
12:59 25.7 °C 12.6 °C 1010.9 hPa NE 14.8 km/h 25.9 km/h 44% 0.0 mm CLR
13:04 26.1 °C 12.9 °C 1010.7 hPa SE 14.8 km/h 14.8 km/h 44% 0.0 mm CLR
13:09 26.3 °C 12.4 °C 1010.7 hPa NE 11.9 km/h 22.2 km/h 42% 0.0 mm CLR
13:14 26.3 °C 11.2 °C 1010.7 hPa NE 11.9 km/h 22.2 km/h 39% 0.0 mm CLR
13:19 26.3 °C 11.2 °C 1010.5 hPa NE 15.6 km/h 20.4 km/h 39% 0.0 mm CLR
13:24 26.3 °C 12.0 °C 1010.5 hPa North 15.6 km/h 25.9 km/h 41% 0.0 mm CLR
13:29 26.3 °C 12.4 °C 1010.5 hPa NE 15.6 km/h 29.6 km/h 42% 0.0 mm CLR
13:34 26.1 °C 12.9 °C 1010.5 hPa NE 15.6 km/h 33.3 km/h 44% 0.0 mm CLR
13:39 25.8 °C 12.6 °C 1010.5 hPa ESE 20.9 km/h 37.0 km/h 44% 0.0 mm CLR
13:44 26.1 °C 12.2 °C 1010.5 hPa ENE 20.9 km/h 20.4 km/h 42% 0.0 mm CLR
13:49 26.3 °C 13.1 °C 1010.3 hPa ENE 16.1 km/h 29.6 km/h 44% 0.0 mm CLR
13:54 26.2 °C 12.6 °C 1010.3 hPa NE 16.1 km/h 25.9 km/h 43% 0.0 mm CLR
13:59 26.3 °C 11.2 °C 1010.3 hPa NNE 18.3 km/h 35.9 km/h 39% 0.0 mm CLR
14:04 26.4 °C 10.6 °C 1010.3 hPa NNW 18.3 km/h 24.1 km/h 37% 0.0 mm CLR
14:09 26.4 °C 10.9 °C 1010.3 hPa ENE 18.3 km/h 25.9 km/h 38% 0.0 mm CLR
14:14 26.3 °C 11.6 °C 1010.3 hPa ENE 18.3 km/h 35.2 km/h 40% 0.0 mm CLR
14:19 26.5 °C 11.8 °C 1010.2 hPa ENE 18.3 km/h 25.1 km/h 40% 0.0 mm CLR
14:24 26.3 °C 11.6 °C 1010.2 hPa ENE 18.3 km/h 29.6 km/h 40% 0.0 mm CLR
14:29 26.2 °C 11.9 °C 1010.2 hPa NNE 20.9 km/h 34.3 km/h 41% 0.0 mm CLR
14:34 26.3 °C 11.2 °C 1010.0 hPa East 20.9 km/h 25.9 km/h 39% 0.0 mm CLR
14:39 26.6 °C 11.5 °C 1010.0 hPa ENE 18.3 km/h 29.8 km/h 39% 0.0 mm CLR
14:44 26.3 °C 12.7 °C 1010.0 hPa East 18.3 km/h 35.2 km/h 43% 0.0 mm CLR
14:49 26.2 °C 12.3 °C 1009.9 hPa NE 20.1 km/h 24.1 km/h 42% 0.0 mm CLR
14:54 26.3 °C 10.4 °C 1009.9 hPa ESE 20.1 km/h 27.8 km/h 37% 0.0 mm CLR
14:59 26.1 °C 13.6 °C 1009.9 hPa NE 20.1 km/h 29.6 km/h 46% 0.0 mm CLR
15:04 25.9 °C 13.1 °C 1009.8 hPa ENE 20.1 km/h 35.2 km/h 45% 0.0 mm CLR
15:09 26.1 °C 12.6 °C 1009.8 hPa NE 21.7 km/h 37.0 km/h 43% 0.0 mm CLR
15:14 26.1 °C 12.9 °C 1009.8 hPa North 21.7 km/h 22.2 km/h 44% 0.0 mm CLR
15:19 26.3 °C 13.8 °C 1009.6 hPa East 18.0 km/h 34.3 km/h 46% 0.0 mm CLR
15:24 26.2 °C 12.3 °C 1009.6 hPa ENE 18.0 km/h 29.1 km/h 42% 0.0 mm CLR
15:29 26.2 °C 11.6 °C 1009.6 hPa ENE 19.8 km/h 22.2 km/h 40% 0.0 mm CLR
15:34 26.4 °C 10.6 °C 1009.7 hPa East 19.8 km/h 22.2 km/h 37% 0.0 mm CLR
15:39 26.3 °C 10.8 °C 1009.7 hPa NE 16.4 km/h 25.9 km/h 38% 0.0 mm CLR
15:44 25.9 °C 11.3 °C 1009.7 hPa ENE 16.4 km/h 38.9 km/h 40% 0.0 mm CLR
15:49 25.8 °C 13.6 °C 1009.6 hPa NNE 20.1 km/h 29.6 km/h 47% 0.0 mm CLR
15:54 25.8 °C 13.6 °C 1009.6 hPa NE 20.1 km/h 27.8 km/h 47% 0.0 mm CLR
15:59 26.1 °C 11.4 °C 1009.6 hPa East 16.4 km/h 25.1 km/h 40% 0.0 mm CLR
16:04 26.2 °C 11.2 °C 1009.5 hPa ENE 16.4 km/h 25.9 km/h 39% 0.0 mm CLR
16:09 26.3 °C 11.2 °C 1009.5 hPa East 16.1 km/h 22.2 km/h 39% 0.0 mm CLR
16:14 26.4 °C 11.7 °C 1009.5 hPa ENE 16.1 km/h 24.1 km/h 40% 0.0 mm CLR
16:19 26.3 °C 11.6 °C 1009.3 hPa NNE 16.4 km/h 20.4 km/h 40% 0.0 mm CLR
16:24 26.4 °C 11.7 °C 1009.3 hPa North 16.4 km/h 20.4 km/h 40% 0.0 mm CLR
16:29 26.4 °C 11.7 °C 1009.3 hPa NE 14.0 km/h 14.8 km/h 40% 0.0 mm CLR
16:34 26.5 °C 11.4 °C 1009.1 hPa SE 14.0 km/h 20.4 km/h 39% 0.0 mm CLR
16:39 26.7 °C 11.6 °C 1009.1 hPa ENE 11.9 km/h 16.1 km/h 39% 0.0 mm CLR
16:44 26.4 °C 11.7 °C 1009.1 hPa NE 11.9 km/h 22.2 km/h 40% 0.0 mm CLR
16:49 26.5 °C 12.2 °C 1009.1 hPa NNE 14.0 km/h 19.8 km/h 41% 0.0 mm CLR
16:54 26.6 °C 12.3 °C 1009.1 hPa NE 14.0 km/h 16.7 km/h 41% 0.0 mm CLR
16:59 26.5 °C 13.9 °C 1009.1 hPa ENE 12.2 km/h 24.1 km/h 46% 0.0 mm CLR
17:04 26.5 °C 12.9 °C 1008.8 hPa NE 12.2 km/h 18.5 km/h 43% 0.0 mm CLR
17:09 26.4 °C 13.5 °C 1008.8 hPa East 13.0 km/h 24.1 km/h 45% 0.0 mm CLR
17:14 26.1 °C 14.6 °C 1008.8 hPa ENE 13.0 km/h 25.9 km/h 49% 0.0 mm CLR
17:19 26.1 °C 14.6 °C 1008.7 hPa NNE 16.4 km/h 20.4 km/h 49% 0.0 mm CLR
17:24 26.0 °C 13.8 °C 1008.7 hPa NE 16.4 km/h 20.9 km/h 47% 0.0 mm CLR
17:29 25.9 °C 14.1 °C 1008.7 hPa ENE 11.9 km/h 25.9 km/h 48% 0.0 mm CLR
17:34 25.9 °C 13.7 °C 1008.7 hPa NNW 11.9 km/h 13.0 km/h 47% 0.0 mm CLR
17:39 26.2 °C 14.0 °C 1008.7 hPa NE 12.2 km/h 24.5 km/h 47% 0.0 mm CLR
17:44 26.1 °C 13.6 °C 1008.7 hPa East 12.2 km/h 27.8 km/h 46% 0.0 mm CLR
17:49 26.2 °C 13.7 °C 1008.5 hPa ESE 14.0 km/h 18.5 km/h 46% 0.0 mm CLR
17:54 26.3 °C 13.1 °C 1008.5 hPa SE 14.0 km/h 18.5 km/h 44% 0.0 mm CLR
17:59 26.4 °C 12.8 °C 1008.5 hPa ESE 11.1 km/h 9.5 km/h 43% 0.0 mm CLR
18:04 26.3 °C 13.1 °C 1008.4 hPa NE 11.1 km/h 24.1 km/h 44% 0.0 mm CLR
18:09 26.3 °C 13.4 °C 1008.4 hPa East 13.0 km/h 18.5 km/h 45% 0.0 mm CLR
18:14 26.2 °C 12.6 °C 1008.4 hPa East 13.0 km/h 18.5 km/h 43% 0.0 mm CLR
18:19 26.1 °C 12.9 °C 1008.2 hPa ESE 12.2 km/h 16.7 km/h 44% 0.0 mm CLR
18:24 26.0 °C 13.2 °C 1008.2 hPa ENE 12.2 km/h 13.7 km/h 45% 0.0 mm CLR
18:29 26.2 °C 12.6 °C 1008.2 hPa East 11.9 km/h 14.8 km/h 43% 0.0 mm CLR
18:34 26.0 °C 12.8 °C 1008.1 hPa ENE 11.9 km/h 20.4 km/h 44% 0.0 mm CLR
18:39 26.0 °C 13.2 °C 1008.1 hPa ESE 12.2 km/h 18.5 km/h 45% 0.0 mm CLR
18:44 25.9 °C 13.4 °C 1008.1 hPa ESE 12.2 km/h 20.4 km/h 46% 0.0 mm CLR
18:49 25.8 °C 13.6 °C 1008.0 hPa ESE 13.0 km/h 20.4 km/h 47% 0.0 mm CLR
18:54 25.9 °C 13.4 °C 1008.0 hPa ESE 13.0 km/h 20.4 km/h 46% 0.0 mm CLR
18:59 25.9 °C 13.1 °C 1008.0 hPa ENE 13.0 km/h 18.5 km/h 45% 0.0 mm CLR
19:04 26.1 °C 12.9 °C 1008.0 hPa East 13.0 km/h 18.5 km/h 44% 0.0 mm CLR
19:09 25.8 °C 12.3 °C 1008.0 hPa East 11.9 km/h 17.2 km/h 43% 0.0 mm CLR
19:14 25.8 °C 12.6 °C 1008.0 hPa ENE 11.9 km/h 20.1 km/h 44% 0.0 mm CLR
19:19 25.8 °C 12.6 °C 1007.8 hPa East 12.2 km/h 18.5 km/h 44% 0.0 mm CLR
19:24 25.8 °C 12.9 °C 1007.8 hPa SE 12.2 km/h 18.5 km/h 45% 0.0 mm CLR
19:29 25.7 °C 12.6 °C 1007.8 hPa East 13.0 km/h 9.3 km/h 44% 0.0 mm CLR
19:34 25.6 °C 12.4 °C 1007.8 hPa ESE 13.0 km/h 20.4 km/h 44% 0.0 mm CLR
19:39 25.6 °C 12.4 °C 1007.8 hPa SE 11.9 km/h 22.2 km/h 44% 0.0 mm CLR
19:44 25.6 °C 12.4 °C 1007.8 hPa SE 11.9 km/h 22.2 km/h 44% 0.0 mm CLR
19:49 25.4 °C 12.3 °C 1007.8 hPa ENE 13.0 km/h 14.8 km/h 44% 0.0 mm CLR
19:54 25.4 °C 12.6 °C 1007.8 hPa NE 13.0 km/h 16.7 km/h 45% 0.0 mm CLR
19:59 25.3 °C 13.5 °C 1007.8 hPa NE 10.0 km/h 16.7 km/h 48% 0.0 mm CLR
20:04 25.3 °C 13.5 °C 1007.8 hPa East 10.0 km/h 8.7 km/h 48% 0.0 mm CLR
20:09 25.3 °C 13.2 °C 1007.8 hPa NE 8.4 km/h 12.2 km/h 47% 0.0 mm CLR
20:14 25.2 °C 13.4 °C 1007.8 hPa SE 8.4 km/h 10.3 km/h 48% 0.0 mm CLR
20:19 24.9 °C 14.1 °C 1007.9 hPa East 10.0 km/h 20.4 km/h 51% 0.0 mm CLR
20:24 24.7 °C 14.5 °C 1007.9 hPa NE 10.0 km/h 18.5 km/h 53% 0.0 mm CLR
20:29 24.3 °C 14.4 °C 1007.9 hPa ESE 12.2 km/h 18.5 km/h 54% 0.0 mm CLR
20:34 24.3 °C 14.7 °C 1008.0 hPa ENE 12.2 km/h 16.7 km/h 55% 0.0 mm CLR
20:39 24.1 °C 14.8 °C 1008.0 hPa NE 11.1 km/h 14.8 km/h 56% 0.0 mm CLR
20:44 23.8 °C 14.8 °C 1008.0 hPa NE 11.1 km/h 22.2 km/h 57% 0.0 mm CLR
20:49 23.6 °C 14.8 °C 1008.1 hPa NE 13.7 km/h 18.5 km/h 58% 0.0 mm CLR
20:54 23.6 °C 15.1 °C 1008.1 hPa ENE 13.7 km/h 14.8 km/h 59% 0.0 mm CLR
20:59 23.3 °C 15.1 °C 1008.1 hPa WNW 10.3 km/h 14.8 km/h 60% 0.0 mm CLR
21:04 23.1 °C 15.4 °C 1008.3 hPa ENE 10.3 km/h 20.4 km/h 62% 0.0 mm CLR
21:09 22.9 °C 15.5 °C 1008.3 hPa NE 10.3 km/h 16.7 km/h 63% 0.0 mm CLR
21:14 22.7 °C 15.6 °C 1008.3 hPa NE 10.3 km/h 18.5 km/h 64% 0.0 mm CLR
21:19 22.5 °C 15.3 °C 1008.4 hPa ENE 11.1 km/h 16.7 km/h 64% 0.0 mm CLR
21:24 22.3 °C 15.7 °C 1008.4 hPa NNE 11.1 km/h 22.2 km/h 66% 0.0 mm CLR
21:29 22.1 °C 15.4 °C 1008.4 hPa NE 13.7 km/h 22.2 km/h 66% 0.0 mm CLR
21:34 21.8 °C 15.2 °C 1008.6 hPa NE 13.7 km/h 29.6 km/h 66% 0.0 mm CLR
21:39 21.6 °C 15.4 °C 1008.6 hPa NE 16.1 km/h 25.9 km/h 68% 0.0 mm CLR
21:44 21.4 °C 15.5 °C 1008.6 hPa NE 16.1 km/h 18.5 km/h 69% 0.0 mm CLR
21:49 21.2 °C 15.5 °C 1008.7 hPa ENE 15.6 km/h 22.2 km/h 70% 0.0 mm CLR
21:54 21.1 °C 15.6 °C 1008.7 hPa ENE 15.6 km/h 25.9 km/h 71% 0.0 mm CLR
21:59 20.9 °C 15.7 °C 1008.7 hPa NE 16.1 km/h 25.1 km/h 72% 0.0 mm CLR
22:04 20.8 °C 15.8 °C 1008.9 hPa NE 16.1 km/h 24.1 km/h 73% 0.0 mm CLR
22:09 20.7 °C 15.9 °C 1008.9 hPa NW 15.6 km/h 24.5 km/h 74% 0.0 mm CLR
22:14 20.6 °C 15.8 °C 1008.9 hPa ENE 15.6 km/h 18.5 km/h 74% 0.0 mm CLR
22:19 20.5 °C 15.9 °C 1009.1 hPa NE 13.7 km/h 20.4 km/h 75% 0.0 mm CLR
22:24 20.4 °C 15.8 °C 1009.1 hPa NE 13.7 km/h 18.5 km/h 75% 0.0 mm CLR
22:29 20.3 °C 15.9 °C 1009.1 hPa NE 13.7 km/h 18.5 km/h 76% 0.0 mm CLR
22:34 20.2 °C 15.8 °C 1009.3 hPa NE 13.7 km/h 25.9 km/h 76% 0.0 mm CLR
22:39 20.2 °C 16.1 °C 1009.3 hPa NNE 16.1 km/h 20.4 km/h 77% 0.0 mm CLR
22:44 20.2 °C 16.1 °C 1009.3 hPa NE 16.1 km/h 18.5 km/h 77% 0.0 mm CLR
22:49 20.2 °C 16.1 °C 1009.6 hPa NE 13.0 km/h 18.0 km/h 77% 0.0 mm CLR
22:54 20.1 °C 16.2 °C 1009.6 hPa ENE 13.0 km/h 14.8 km/h 78% 0.0 mm CLR
22:59 20.0 °C 16.1 °C 1009.6 hPa ENE 11.1 km/h 18.5 km/h 78% 0.0 mm CLR
23:04 20.0 °C 16.1 °C 1009.7 hPa NE 11.1 km/h 14.8 km/h 78% 0.0 mm CLR
23:09 19.9 °C 15.9 °C 1009.7 hPa ENE 11.1 km/h 16.7 km/h 78% 0.0 mm CLR
23:14 19.9 °C 15.9 °C 1009.7 hPa NE 11.1 km/h 18.5 km/h 78% 0.0 mm CLR
23:19 19.8 °C 15.8 °C 1009.8 hPa NNE 11.1 km/h 14.8 km/h 78% 0.0 mm CLR
23:24 19.7 °C 15.9 °C 1009.8 hPa NNW 11.1 km/h 16.7 km/h 79% 0.0 mm CLR
23:29 19.6 °C 15.8 °C 1009.8 hPa NNE 10.3 km/h 16.7 km/h 79% 0.0 mm CLR
23:34 19.6 °C 16.1 °C 1010.0 hPa NE 10.3 km/h 24.1 km/h 80% 0.0 mm CLR
23:39 19.4 °C 15.8 °C 1010.0 hPa NE 13.0 km/h 24.1 km/h 80% 0.0 mm CLR
23:44 19.4 °C 15.8 °C 1010.0 hPa NNE 13.0 km/h 20.4 km/h 80% 0.0 mm CLR
23:49 19.4 °C 15.8 °C 1010.0 hPa NE 14.8 km/h 13.0 km/h 80% 0.0 mm CLR
23:54 19.3 °C 15.9 °C 1010.0 hPa NE 14.8 km/h 16.7 km/h 81% 0.0 mm CLR
23:59 19.3 °C 15.9 °C 1010.0 hPa ENE 10.3 km/h 15.6 km/h 81% 0.0 mm CLR
Murcia-Puente Tocinos, España
Compliments of Weather Underground - 2.5 mb

La estación de MeteoMurcia.com, publica sus datos en los siguientes proyectos:

Weather Underground PWS IMURCIAP2 Meteoclimatic www.awekas.at

W3Counter
Web Analytics